User: anonymous   Login
Location: Irma
(52.9170°N, 111.2330°W)
Time: 08:46:19
(UTC-06:00)
Language:

deb Chang Zheng 4 - Orbit

View from above orbital plane
View from above orbital plane
View from above satellite
View from above satellite

Ground track
Ground track

The orbit data is extracted from the following two-line orbital elements,

1 20847U 90081K   16206.18442654  .00002025  00000-0  28315-3 0  9999
2 20847  98.5593  63.6739 0019057  35.0761 325.1699 14.78724009357305
Epoch (UTC): 24 July 2016 04:25:34
Eccentricity: 0.0019057
inclination: 98.5593°
perigee height: 620 km
apogee height: 647 km
right ascension of ascending node: 63.6739°
argument of perigee: 35.0761°
revolutions per day: 14.78724009
mean anomaly at epoch: 325.1699°
orbit number at epoch: 35730

The dashed part of the orbit path shows where the satellite is in the earth's shadow,  

DLR